2017-019C

Last updated on Thu Jun 22 2017 00:15:04 GMT+0000 (Coordinated Universal Time)

1 42753U 17019C 17172.57138354 .00003270 00000-0 13297-3 0 9990 2 42753 51.6428 19.0906 0010883 1.2022 358.8981 15.27405032 1913
UTC large
Height (km)
Speed (km/s)
/
Latitude / Longitude
Inclination (degrees)
Orbital Period (minutes)
Azimuth
Elevation
Range (km)
Doppler Factor

Next 0 passes for location: London (51.5072 / 0.1276)

Sorry there are no passes over London.